Change the Weather History Date:

Saturday, November 23, 2013

  Actual Average Record
Temperature  
Mean Temperature 9 °F -  
Max Temperature 15 °F 37 °F 60 °F (2006)
Min Temperature 3 °F 23 °F 3 °F (2013)
Degree Days  
Heating Degree Days 56    
Moisture  
Dew Point 2 °F    
Average Humidity 74    
Maximum Humidity 92    
Minimum Humidity 57    
Precipitation  
Precipitation 0.00 in - - ()
Sea Level Pressure  
Sea Level Pressure 30.70 in    
Wind  
Wind Speed 12 mph (NW)    
Max Wind Speed 17 mph    
Max Gust Speed 25 mph    
Visibility 10 miles    
Events      
Averages and records for this station are not official NWS values.
T = Trace of Precipitation, MM = Missing Value Source: NWS Daily Summary

Daily Weather History Graph

Daily Weather History Graph

Search for Another Location

Airport or City:

Trip Planner

Search our weather history database for the weather conditions in past years. The results will help you decide how hot, cold, wet, or windy it might be!

Date:

Astronomy

Nov. 23, 2013 Rise Set
Actual Time 7:16 AM CST 4:39 PM CST
Civil Twilight 6:44 AM CST 5:11 PM CST
Nautical Twilight 6:09 AM CST 5:46 PM CST
Astronomical Twilight 5:35 AM CST 6:20 PM CST
Moon 10:13 PM CST (11/23) 11:29 AM CST (11/23)
Length of Visible Light 10h 26m
Length of Day
9h 23m
Waning Gibbous, 69% of the Moon is Illuminated
Nov 23
Waning Gibbous
Nov 25
Last Quarter
Dec 2
New
Dec 9
First Quarter
Dec 17
Full

Hourly Weather History & Observations

Time (CST) Temp. Windchill Dew Point Humidity Pressure Visibility Wind Dir Wind Speed Gust Speed Precip Events Conditions
12:14 AM 15.8 °F 1.4 °F 10.4 °F 79% 30.53 in 10.0 mi NW 13.8 mph 23.0 mph N/A   Clear
12:34 AM 15.8 °F 0.3 °F 8.6 °F 73% 30.54 in 10.0 mi NNW 16.1 mph 21.9 mph N/A   Clear
12:54 AM 12.2 °F -4.3 °F 6.8 °F 79% 30.55 in 10.0 mi NW 16.1 mph 24.2 mph N/A   Clear
1:14 AM 12.2 °F -3.1 °F 6.8 °F 79% 30.57 in 10.0 mi NW 13.8 mph 18.4 mph N/A   Clear
1:34 AM 10.4 °F -5.4 °F 5.0 °F 79% 30.57 in 10.0 mi NNW 13.8 mph 19.6 mph N/A   Clear
1:54 AM 10.4 °F -7.2 °F 3.2 °F 73% 30.58 in 10.0 mi NNW 17.3 mph 21.9 mph N/A   Clear
2:14 AM 10.4 °F -5.4 °F 3.2 °F 73% 30.59 in 10.0 mi NNW 13.8 mph - N/A   Clear
2:34 AM 10.4 °F -6.6 °F 3.2 °F 73% 30.61 in 10.0 mi NNW 16.1 mph 23.0 mph N/A   Clear
2:54 AM 8.6 °F -4.7 °F 3.2 °F 79% 30.61 in 10.0 mi NNW 9.2 mph - N/A   Clear
3:14 AM 8.6 °F -7.0 °F 3.2 °F 79% 30.61 in 10.0 mi NNW 12.7 mph 19.6 mph N/A   Scattered Clouds
3:34 AM 8.6 °F -7.7 °F 3.2 °F 79% 30.62 in 10.0 mi NNW 13.8 mph 20.7 mph N/A   Scattered Clouds
3:54 AM 8.6 °F -6.3 °F 3.2 °F 79% 30.62 in 10.0 mi NNW 11.5 mph 18.4 mph N/A   Mostly Cloudy
4:14 AM 8.6 °F -6.3 °F 3.2 °F 79% 30.62 in 10.0 mi NNW 11.5 mph 19.6 mph N/A   Scattered Clouds
4:34 AM 6.8 °F -10.0 °F 1.4 °F 79% 30.64 in 10.0 mi NNW 13.8 mph 19.6 mph N/A   Clear
4:54 AM 6.8 °F -7.8 °F 1.4 °F 79% 30.65 in 10.0 mi NNW 10.4 mph - N/A   Clear
5:14 AM 6.8 °F -10.0 °F 1.4 °F 79% 30.66 in 10.0 mi NNW 13.8 mph 17.3 mph N/A   Clear
5:34 AM 6.8 °F -8.6 °F 1.4 °F 79% 30.66 in 10.0 mi NNW 11.5 mph - N/A   Clear
5:54 AM 6.8 °F -9.3 °F 1.4 °F 79% 30.68 in 10.0 mi NNW 12.7 mph 16.1 mph N/A   Clear
6:14 AM 6.8 °F -7.8 °F 1.4 °F 79% 30.69 in 10.0 mi NW 10.4 mph - N/A   Clear
6:34 AM 5.0 °F -10.0 °F 1.4 °F 85% 30.70 in 10.0 mi NW 10.4 mph 16.1 mph N/A   Clear
6:54 AM 5.0 °F -10.8 °F 1.4 °F 85% 30.71 in 10.0 mi NW 11.5 mph - N/A   Clear
7:14 AM 3.2 °F -11.3 °F 1.4 °F 92% 30.72 in 10.0 mi NW 9.2 mph 16.1 mph N/A   Clear
7:34 AM 5.0 °F -9.1 °F 1.4 °F 85% 30.73 in 10.0 mi NW 9.2 mph - N/A   Clear
7:54 AM 5.0 °F -10.0 °F 1.4 °F 85% 30.74 in 10.0 mi NW 10.4 mph - N/A   Clear
8:14 AM 6.8 °F -7.8 °F 1.4 °F 79% 30.75 in 10.0 mi NW 10.4 mph - N/A   Clear
8:34 AM 6.8 °F -8.6 °F 3.2 °F 85% 30.75 in 10.0 mi NNW 11.5 mph 16.1 mph N/A   Clear
8:54 AM 6.8 °F -8.6 °F 3.2 °F 85% 30.76 in 10.0 mi NNW 11.5 mph 18.4 mph N/A   Clear
9:14 AM 8.6 °F -7.7 °F 3.2 °F 79% 30.76 in 10.0 mi NNW 13.8 mph 18.4 mph N/A   Clear
9:34 AM 8.6 °F -7.7 °F 3.2 °F 79% 30.77 in 10.0 mi NNW 13.8 mph 19.6 mph N/A   Clear
9:54 AM 10.4 °F -5.4 °F 3.2 °F 73% 30.77 in 10.0 mi NNW 13.8 mph 20.7 mph N/A   Scattered Clouds
10:14 AM 10.4 °F -6.0 °F 1.4 °F 67% 30.77 in 10.0 mi North 15.0 mph 21.9 mph N/A   Scattered Clouds
10:34 AM 10.4 °F -4.8 °F 3.2 °F 73% 30.77 in 10.0 mi NNW 12.7 mph 21.9 mph N/A   Scattered Clouds
10:54 AM 10.4 °F -6.0 °F 1.4 °F 67% 30.77 in 10.0 mi NNW 15.0 mph 25.3 mph N/A   Scattered Clouds
11:14 AM 12.2 °F -1.0 °F 3.2 °F 67% 30.75 in 10.0 mi North 10.4 mph 18.4 mph N/A   Clear
11:34 AM 12.2 °F -2.5 °F 3.2 °F 67% 30.75 in 10.0 mi North 12.7 mph 19.6 mph N/A   Clear
11:54 AM 12.2 °F -3.1 °F 3.2 °F 67% 30.76 in 10.0 mi North 13.8 mph 19.6 mph N/A   Clear
12:14 PM 12.2 °F -3.1 °F 3.2 °F 67% 30.75 in 10.0 mi NNW 13.8 mph 20.7 mph N/A   Clear
12:34 PM 12.2 °F -2.5 °F 3.2 °F 67% 30.75 in 10.0 mi North 12.7 mph 19.6 mph N/A   Clear
12:54 PM 14.0 °F 2.0 °F 3.2 °F 62% 30.75 in 10.0 mi NNW 9.2 mph 20.7 mph N/A   Scattered Clouds
1:14 PM 12.2 °F -1.8 °F 3.2 °F 67% 30.76 in 10.0 mi NNW 11.5 mph 19.6 mph N/A   Scattered Clouds
1:34 PM 14.0 °F -0.2 °F 3.2 °F 62% 30.75 in 10.0 mi WNW 12.7 mph - N/A   Scattered Clouds
1:54 PM 14.0 °F 0.5 °F 3.2 °F 62% 30.75 in 10.0 mi NNW 11.5 mph 17.3 mph N/A   Scattered Clouds
2:14 PM 14.0 °F 1.2 °F 3.2 °F 62% 30.74 in 10.0 mi NNW 10.4 mph 17.3 mph N/A   Clear
2:34 PM 15.8 °F 1.4 °F 3.2 °F 58% 30.74 in 10.0 mi NNW 13.8 mph - N/A   Clear
2:54 PM 15.8 °F 3.4 °F 3.2 °F 58% 30.74 in 10.0 mi NW 10.4 mph 18.4 mph N/A   Clear
3:14 PM 15.8 °F 3.4 °F 3.2 °F 58% 30.73 in 10.0 mi NNW 10.4 mph - N/A   Clear
3:34 PM 14.0 °F 0.5 °F 1.4 °F 57% 30.73 in 10.0 mi NNW 11.5 mph - N/A   Clear
3:54 PM 14.0 °F 1.2 °F 1.4 °F 57% 30.74 in 10.0 mi NNW 10.4 mph 16.1 mph N/A   Clear
4:14 PM 14.0 °F 1.2 °F 1.4 °F 57% 30.74 in 10.0 mi NW 10.4 mph 18.4 mph N/A   Clear
4:34 PM 12.2 °F 1.7 °F 1.4 °F 62% 30.74 in 10.0 mi NW 6.9 mph - N/A   Clear
4:54 PM 10.4 °F 0.8 °F 1.4 °F 67% 30.74 in 10.0 mi NW 5.8 mph - N/A   Clear
5:14 PM 10.4 °F 0.8 °F 1.4 °F 67% 30.74 in 10.0 mi WNW 5.8 mph - N/A   Clear
5:34 PM 10.4 °F -0.4 °F 1.4 °F 67% 30.74 in 10.0 mi WNW 6.9 mph - N/A   Clear
5:54 PM 10.4 °F 0.8 °F 1.4 °F 67% 30.74 in 10.0 mi West 5.8 mph - N/A   Clear
6:14 PM 10.4 °F 2.2 °F 1.4 °F 67% 30.73 in 10.0 mi WNW 4.6 mph - N/A   Clear
6:34 PM 10.4 °F 2.2 °F 1.4 °F 67% 30.73 in 10.0 mi WNW 4.6 mph - N/A   Clear
6:54 PM 8.6 °F -1.3 °F 1.4 °F 73% 30.72 in 10.0 mi NNW 5.8 mph - N/A   Clear
7:14 PM 8.6 °F 2.0 °F 1.4 °F 73% 30.71 in 10.0 mi North 3.5 mph - N/A   Clear
7:34 PM 8.6 °F 0.1 °F 1.4 °F 73% 30.72 in 10.0 mi NW 4.6 mph - N/A   Clear
7:54 PM 8.6 °F 0.1 °F 1.4 °F 73% 30.72 in 10.0 mi WNW 4.6 mph - N/A   Clear
8:14 PM 8.6 °F -2.6 °F 1.4 °F 73% 30.72 in 10.0 mi WNW 6.9 mph - N/A   Clear
8:34 PM 6.8 °F -0.1 °F 1.4 °F 79% 30.71 in 10.0 mi NW 3.5 mph - N/A   Clear
8:54 PM 6.8 °F -0.1 °F 1.4 °F 79% 30.71 in 10.0 mi WNW 3.5 mph - N/A   Clear
9:14 PM 6.8 °F -0.1 °F 1.4 °F 79% 30.71 in 10.0 mi NW 3.5 mph - N/A   Clear
9:34 PM 6.8 °F -0.1 °F 1.4 °F 79% 30.71 in 10.0 mi West 3.5 mph - N/A   Clear
9:54 PM 6.8 °F -0.1 °F 1.4 °F 79% 30.70 in 10.0 mi NW 3.5 mph - N/A   Clear
10:14 PM 5.0 °F -2.1 °F -0.4 °F 78% 30.70 in 10.0 mi SW 3.5 mph - N/A   Clear
10:34 PM 6.8 °F -4.8 °F 1.4 °F 79% 30.69 in 10.0 mi NNW 6.9 mph - N/A   Clear
10:54 PM 6.8 °F - 1.4 °F 79% 30.70 in 10.0 mi Calm Calm - N/A   Clear
11:14 PM 6.8 °F -0.1 °F -0.4 °F 72% 30.69 in 10.0 mi SW 3.5 mph - N/A   Clear
11:34 PM 3.2 °F -4.2 °F -0.4 °F 85% 30.69 in 10.0 mi SW 3.5 mph - N/A   Clear
11:54 PM 3.2 °F - -0.4 °F 85% 30.69 in 10.0 mi Calm Calm - N/A   Clear